Flag for U.S.A. Weather past 2 weeks in Shiprock, New Mexico, U.S.A.

Now
72 °F

Clear.


Feels Like: 77 °F
Forecast: 59 / 86 °F
Wind: 6 mph from West

Location: Four Corners Regional Airport

Current Time: Sep 1, 2015 at 10:31:12 PM

Latest Report: Sep 1, 2015 at 9:53 PM


Visibility: 10 mi

Pressure: 29.97 "Hg (25.22 "Hg at 1492m altitude)

Humidity: 41%

Dew point: 47 °F

Location of ShiprockLocation

Historic Weather in Shiprock — Graph

°F

Shiprock temperature yesterday

Maximum temperature yesterday: 85 °F (at 2:53 PM)
Minimum temperature yesterday: 57 °F (at 6:53 AM)
Average temperature yesterday: 73 °F

Past Weeks' High & Low Weather Summary

 TemperatureHumidityPressure
High93 °F (Aug 18, 4:53 PM)93% (Aug 26, 10:02 PM)30.37 "Hg (Aug 26, 10:02 PM)
Low54 °F (Aug 20, 5:53 AM)6% (Aug 18, 4:53 PM)29.69 "Hg (Aug 18, 4:53 PM)
Average74 °F37%29.96 "Hg
* Reported Aug 17 8:53 PM — Sep 1 8:53 PM, Shiprock, Weather by CustomWeather, © 2015

Note: Actual official high and low records may vary slightly from our data, if they occured in-between our weather recording intervals... More about our weather records

Advertising

Shiprock weather history for previous 24 hours

 ConditionsComfort  
Time TempWeatherWind HumidityBarometerVisibility
8:53 PM
Tue, Sep 1
75 °FClear.7 mph36%29.96 "Hg10 mi
7:53 PM77 °FSunny.9 mph33%29.95 "Hg10 mi
6:53 PM81 °FSunny.13 mph26%29.93 "Hg10 mi
5:53 PM84 °FSunny.15 mph23%29.93 "Hg10 mi
4:53 PM86 °FSunny.9 mph21%29.92 "Hg10 mi
3:53 PM87 °FSunny.12 mph21%29.91 "Hg10 mi
2:53 PM84 °FSunny.3 mph25%29.94 "Hg10 mi
1:53 PM84 °FSunny.9 mph25%29.96 "Hg10 mi
12:53 PM83 °FSunny.10 mph26%29.98 "Hg10 mi
11:53 AM77 °FSunny.5 mph33%30.02 "Hg10 mi
10:53 AM77 °FSunny.6 mph35%30.03 "Hg10 mi
9:53 AM71 °FSunny.3 mph47%30.04 "Hg10 mi
8:53 AM67 °FSunny.6 mph49%30.04 "Hg10 mi
7:53 AM61 °FPassing clouds.6 mph62%30.05 "Hg10 mi
6:53 AM58 °FClear.7 mph70%30.02 "Hg10 mi
5:53 AM56 °FClear.5 mph70%30.01 "Hg10 mi
4:53 AM57 °FClear.3 mph67%29.99 "Hg10 mi
3:53 AM60 °FClear.8 mph62%29.99 "Hg10 mi
2:53 AM63 °FClear.6 mph56%29.98 "Hg10 mi
1:53 AM65 °FClear.5 mph52%29.98 "Hg10 mi
12:53 AM68 °FClear.8 mph47%29.96 "Hg10 mi
11:53 PM
Mon, Aug 31
68 °FClear.10 mph49%29.98 "Hg10 mi
10:53 PM70 °FClear.12 mph49%29.98 "Hg10 mi
Weather by CustomWeather, © 2015

See weather overviewHow to use our weather pages